Bluffton, MN

6:00 AM CDT on September 25, 2016 (GMT -0500)
Wadena Municipal

Weather History for KADC - October, 2012

Change the Weather History Date:

Sunday, October 14, 2012

  Actual Average Record
Temperature  
Mean Temperature 45 °F -  
Max Temperature 55 °F 56 °F 81 °F (1947)
Min Temperature 35 °F 35 °F 12 °F (1937)
Degree Days  
Heating Degree Days 20    
Moisture  
Dew Point 34 °F    
Average Humidity 73    
Maximum Humidity 93    
Minimum Humidity 44    
Precipitation  
Precipitation 0.00 in - - ()
Sea Level Pressure  
Sea Level Pressure 29.84 in    
Wind  
Wind Speed 6 mph (NW)    
Max Wind Speed 15 mph    
Max Gust Speed 20 mph    
Visibility 10 miles    
Events      
Averages and records for this station are not official NWS values.
T = Trace of Precipitation, MM = Missing Value Source: NWS Daily Summary

Daily Weather History Graph

Daily Weather History Graph

Search for Another Location

Airport or City:

Trip Planner

Search our weather history database for the weather conditions in past years. The results will help you decide how hot, cold, wet, or windy it might be!

Date:

Astronomy

Oct. 14, 2012 Rise Set
Actual Time 7:37 AM CDT 6:35 PM CDT
Civil Twilight 7:07 AM CDT 7:05 PM CDT
Nautical Twilight 6:32 AM CDT 7:40 PM CDT
Astronomical Twilight 5:57 AM CDT 8:15 PM CDT
Moon 6:36 AM CDT (10/14) 5:54 PM CDT (10/14)
Length of Visible Light 11h 58m
Length of Day
10h 57m
Waning Crescent, 1% of the Moon is Illuminated
Oct 14
Waning Crescent
Oct 15
New
Oct 21
First Quarter
Oct 29
Full
Nov 6
Last Quarter

Hourly Weather History & Observations

Time (CDT) Temp. Windchill Dew Point Humidity Pressure Visibility Wind Dir Wind Speed Gust Speed Precip Events Conditions
12:14 AM 39.2 °F 35.0 °F 33.8 °F 81% 29.78 in 10.0 mi NNW 5.8 mph - N/A   Clear
12:35 AM 35.6 °F 31.7 °F 32.0 °F 87% 29.78 in 10.0 mi NNW 4.6 mph - N/A   Clear
12:53 AM 37.4 °F 31.4 °F 33.8 °F 87% 29.77 in 10.0 mi NNW 8.1 mph - N/A   Clear
1:14 AM 37.4 °F 31.4 °F 33.8 °F 87% 29.77 in 10.0 mi NNW 8.1 mph - N/A   Clear
1:35 AM 37.4 °F 33.8 °F 33.8 °F 87% 29.77 in 10.0 mi North 4.6 mph - N/A   Clear
1:53 AM 37.4 °F 32.8 °F 33.8 °F 87% 29.78 in 10.0 mi North 5.8 mph - N/A   Clear
2:35 AM 37.4 °F 34.9 °F 35.6 °F 93% 29.78 in 10.0 mi North 3.5 mph - N/A   Overcast
2:53 AM 39.2 °F - 35.6 °F 87% 29.79 in 10.0 mi Calm Calm - N/A   Overcast
3:15 AM 39.2 °F 37.0 °F 35.6 °F 87% 29.79 in 10.0 mi NNW 3.5 mph - N/A   Overcast
3:35 AM 39.2 °F 37.0 °F 35.6 °F 87% 29.79 in 7.0 mi NNW 3.5 mph - N/A   Overcast
3:53 AM 39.2 °F 35.9 °F 35.6 °F 87% 29.80 in 7.0 mi North 4.6 mph - N/A   Overcast
4:15 AM 39.2 °F 35.9 °F 35.6 °F 87% 29.80 in 7.0 mi North 4.6 mph - N/A   Overcast
4:35 AM 39.2 °F 35.9 °F 35.6 °F 87% 29.80 in 7.0 mi North 4.6 mph - N/A   Overcast
4:53 AM 39.2 °F 37.0 °F 35.6 °F 87% 29.82 in 7.0 mi NNW 3.5 mph - N/A   Overcast
5:15 AM 39.2 °F 35.0 °F 37.4 °F 93% 29.82 in 7.0 mi NNW 5.8 mph - N/A   Overcast
5:35 AM 39.2 °F 35.0 °F 35.6 °F 87% 29.83 in 7.0 mi NNW 5.8 mph - N/A   Overcast
5:53 AM 39.2 °F 35.0 °F 35.6 °F 87% 29.82 in 10.0 mi NNW 5.8 mph - N/A   Overcast
6:15 AM 39.2 °F 35.9 °F 35.6 °F 87% 29.82 in 10.0 mi NNW 4.6 mph - N/A   Overcast
6:35 AM 39.2 °F 35.0 °F 35.6 °F 87% 29.82 in 10.0 mi North 5.8 mph - N/A   Overcast
6:53 AM 41.0 °F 37.1 °F 35.6 °F 81% 29.82 in 10.0 mi NW 5.8 mph - N/A   Overcast
7:15 AM 39.2 °F 33.6 °F 35.6 °F 87% 29.83 in 10.0 mi WNW 8.1 mph - N/A   Overcast
7:35 AM 39.2 °F 34.2 °F 35.6 °F 87% 29.83 in 10.0 mi NW 6.9 mph - N/A   Overcast
7:53 AM 39.2 °F 35.0 °F 35.6 °F 87% 29.84 in 7.0 mi NNW 5.8 mph - N/A   Overcast
8:15 AM 39.2 °F 33.0 °F 33.8 °F 81% 29.84 in 10.0 mi NNW 9.2 mph - N/A   Overcast
8:35 AM 39.2 °F 37.0 °F 33.8 °F 81% 29.85 in 10.0 mi NNW 3.5 mph - N/A   Overcast
8:53 AM 39.2 °F 34.2 °F 33.8 °F 81% 29.85 in 10.0 mi NW 6.9 mph - N/A   Overcast
9:15 AM 37.4 °F 32.1 °F 32.0 °F 81% 29.85 in 10.0 mi NW 6.9 mph - N/A   Overcast
9:34 AM 39.2 °F 33.6 °F 32.0 °F 75% 29.86 in 10.0 mi NW 8.1 mph - N/A   Overcast
9:53 AM 39.2 °F 33.0 °F 33.8 °F 81% 29.86 in 10.0 mi NW 9.2 mph - N/A   Overcast
10:15 AM 41.0 °F 35.2 °F 33.8 °F 76% 29.86 in 10.0 mi NNW 9.2 mph - N/A   Overcast
10:34 AM 42.8 °F 38.0 °F 35.6 °F 76% 29.86 in 10.0 mi NNW 8.1 mph - N/A   Mostly Cloudy
10:53 AM 44.6 °F 39.7 °F 35.6 °F 71% 29.86 in 10.0 mi NNW 9.2 mph - N/A   Overcast
11:15 AM 44.6 °F 39.2 °F 35.6 °F 71% 29.86 in 10.0 mi NNW 10.4 mph - N/A   Overcast
11:35 AM 46.4 °F 42.4 °F 37.4 °F 71% 29.87 in 10.0 mi North 8.1 mph - N/A   Mostly Cloudy
11:53 AM 48.2 °F - 39.2 °F 71% 29.86 in 10.0 mi North 6.9 mph - N/A   Scattered Clouds
12:14 PM 48.2 °F - 37.4 °F 66% 29.86 in 10.0 mi North 8.1 mph - N/A   Scattered Clouds
12:35 PM 50.0 °F - 37.4 °F 62% 29.85 in 10.0 mi North 6.9 mph - N/A   Clear
12:53 PM 51.8 °F - 37.4 °F 58% 29.85 in 10.0 mi North 6.9 mph - N/A   Scattered Clouds
1:15 PM 53.6 °F - 37.4 °F 54% 29.84 in 10.0 mi NNW 10.4 mph 16.1 mph N/A   Scattered Clouds
1:35 PM 51.8 °F - 37.4 °F 58% 29.84 in 10.0 mi NNW 8.1 mph 16.1 mph N/A   Mostly Cloudy
1:53 PM 53.6 °F - 39.2 °F 58% 29.84 in 10.0 mi WNW 9.2 mph - N/A   Mostly Cloudy
2:15 PM 53.6 °F - 39.2 °F 58% 29.84 in 10.0 mi NNW 9.2 mph - N/A   Overcast
2:35 PM 53.6 °F - 39.2 °F 58% 29.84 in 10.0 mi North 8.1 mph - N/A   Overcast
2:53 PM 53.6 °F - 37.4 °F 54% 29.84 in 10.0 mi NW 10.4 mph 17.3 mph N/A   Overcast
3:14 PM 53.6 °F - 37.4 °F 54% 29.84 in 10.0 mi NW 8.1 mph 18.4 mph N/A   Overcast
3:35 PM 55.4 °F - 37.4 °F 51% 29.84 in 10.0 mi NW 10.4 mph - N/A   Overcast
3:53 PM 53.6 °F - 35.6 °F 51% 29.84 in 10.0 mi NW 15.0 mph - N/A   Scattered Clouds
4:14 PM 53.6 °F - 33.8 °F 47% 29.84 in 10.0 mi WNW 9.2 mph 16.1 mph N/A   Clear
4:35 PM 53.6 °F - 32.0 °F 44% 29.85 in 10.0 mi WNW 15.0 mph 19.6 mph N/A   Clear
4:53 PM 53.6 °F - 32.0 °F 44% 29.85 in 10.0 mi WNW 12.7 mph 19.6 mph N/A   Clear
5:14 PM 51.8 °F - 32.0 °F 47% 29.86 in 10.0 mi WNW 12.7 mph 16.1 mph N/A   Clear
5:35 PM 51.8 °F - 32.0 °F 47% 29.86 in 10.0 mi WNW 11.5 mph - N/A   Clear
5:53 PM 50.0 °F - 32.0 °F 50% 29.87 in 10.0 mi NW 9.2 mph - N/A   Clear
6:14 PM 48.2 °F - 32.0 °F 54% 29.87 in 10.0 mi WNW 8.1 mph - N/A   Clear
6:35 PM 46.4 °F 42.9 °F 32.0 °F 57% 29.87 in 10.0 mi NW 6.9 mph - N/A   Clear
6:53 PM 44.6 °F 41.4 °F 32.0 °F 61% 29.87 in 10.0 mi WNW 5.8 mph - N/A   Clear
7:14 PM 44.6 °F 40.7 °F 32.0 °F 61% 29.88 in 10.0 mi WNW 6.9 mph - N/A   Clear
7:35 PM 44.6 °F 41.4 °F 32.0 °F 61% 29.88 in 10.0 mi WNW 5.8 mph - N/A   Clear
7:53 PM 42.8 °F 40.1 °F 32.0 °F 66% 29.88 in 10.0 mi WNW 4.6 mph - N/A   Clear
8:14 PM 41.0 °F 38.0 °F 32.0 °F 70% 29.89 in 10.0 mi WNW 4.6 mph - N/A   Clear
8:35 PM 41.0 °F 38.0 °F 32.0 °F 70% 29.89 in 10.0 mi WNW 4.6 mph - N/A   Clear
8:53 PM 39.2 °F 35.9 °F 32.0 °F 75% - 10.0 mi WNW 4.6 mph - N/A   Clear
9:14 PM 39.2 °F - 32.0 °F 75% 29.90 in 10.0 mi North - - N/A   Clear
9:35 PM 37.4 °F 32.8 °F 32.0 °F 81% 29.90 in - NW 5.8 mph - N/A   Clear
9:53 PM 37.4 °F 32.8 °F 32.0 °F 81% 29.90 in 10.0 mi NW 5.8 mph - N/A   Clear
10:14 PM 37.4 °F 33.8 °F 32.0 °F 81% 29.90 in 10.0 mi WNW 4.6 mph - N/A   Clear
10:34 PM 37.4 °F 33.8 °F 32.0 °F 81% 29.90 in 10.0 mi WNW 4.6 mph - N/A   Clear
10:53 PM 35.6 °F 31.7 °F 30.2 °F 81% 29.90 in 10.0 mi NW 4.6 mph - N/A   Clear
11:15 PM 35.6 °F 30.7 °F 30.2 °F 81% 29.91 in 10.0 mi WNW 5.8 mph - N/A   Clear
11:35 PM 35.6 °F 31.7 °F 30.2 °F 81% 29.91 in 10.0 mi NW 4.6 mph - N/A   Clear
11:53 PM 35.6 °F - 32.0 °F 87% 29.91 in 10.0 mi Calm Calm - N/A   Clear